Theta_e
313 314 314 314 314 313 313 313 312 311 310 308 305 307 304 304 301 312 318 313 308 298 293 300 298 293 297 300 298 299 297 295 296 295 297 295 297 294 294 293 292 293 292 292 291 291 289 291 289 292 293 293 295 296 297 297 297 295 292 295 294 303 288 285 286 289 293 296 298 299 299 298 294 294 295 293 290 292 290 290 293 291 291 288 289 290 296
313 314 314 315 314 313 313 313 312 312 310 306 305 303 303 303 304 308 314 310 305 298 290 291 292 293 297 297 296 298 296 295 294 294 295 295 294 292 293 294 296 293 295 294 292 294 286 293 292 289 294 291 298 297 296 298 295 295 293 291 295 287 289 286 281 281 285 287 292 294 297 296 291 290 293 294 294 294 294 296 294 289 293 292 290 286 293
314 314 314 314 314 313 313 313 312 312 312 310 304 302 303 302 307 308 308 309 303 295 296 293 291 295 294 294 293 294 295 295 295 295 294 297 295 294 292 294 295 293 295 294 295 295 292 288 294 294 294 293 298 297 296 299 297 301 303 304 299 290 290 284 278 277 276 278 280 282 285 288 291 293 292 293 292 291 291 287 289 283 290 292 289 290 296
314 314 314 314 313 313 313 313 312 312 312 310 306 304 304 301 294 299 299 302 299 298 302 298 295 292 294 292 293 294 292 295 297 296 295 296 296 295 296 295 295 293 292 291 292 293 295 292 291 291 291 294 296 296 297 298 299 303 307 304 297 290 292 287 285 282 281 284 287 292 294 290 286 289 290 291 292 293 292 291 289 284 288 288 291 294 293
314 314 315 314 313 313 313 312 312 312 312 311 304 306 303 304 295 295 290 297 297 294 296 296 296 292 296 288 294 291 292 294 295 297 292 296 295 295 294 294 292 291 292 290 292 293 292 293 292 292 293 296 295 297 297 299 304 306 303 304 295 290 285 289 289 289 288 289 289 291 293 288 289 289 289 291 291 291 290 287 285 291 288 282 293 295 292
314 315 315 314 314 313 313 312 312 312 311 311 308 301 303 293 298 301 303 292 290 291 293 297 297 299 298 293 296 292 291 292 290 296 297 299 297 292 294 294 294 293 292 293 289 291 291 291 289 294 294 294 294 293 297 297 303 302 297 301 294 288 285 290 289 288 290 291 291 292 291 290 290 290 290 289 291 291 289 289 290 291 289 285 292 294 294
314 315 315 315 314 313 313 313 312 311 309 310 308 300 302 302 303 302 307 294 296 297 298 300 297 297 298 295 295 291 291 290 293 293 293 296 295 295 287 290 292 294 295 292 289 289 285 287 292 291 290 291 290 289 292 296 297 297 295 295 296 288 284 291 290 288 289 290 290 292 290 290 291 290 291 291 291 291 291 290 291 291 290 293 295 297 296
314 315 315 315 314 314 314 313 313 311 309 311 308 304 300 299 298 298 304 302 296 297 297 297 295 292 298 291 293 294 292 290 292 296 294 290 292 298 291 291 293 294 295 294 290 293 293 292 289 293 292 289 291 289 292 289 293 295 293 297 294 289 288 294 289 286 286 289 292 291 291 290 289 290 291 291 290 290 291 291 292 295 294 296 294 295 295
314 314 315 315 314 314 314 313 312 311 310 309 306 305 306 305 307 305 299 296 297 299 296 294 292 290 291 289 295 295 293 293 296 297 300 295 292 294 291 293 293 295 294 295 295 297 295 296 295 296 294 289 294 289 290 294 291 293 292 294 295 292 286 291 288 283 283 288 289 290 291 291 288 288 289 290 289 289 289 290 295 295 295 294 292 293 295
314 314 315 315 314 314 314 314 314 311 309 308 304 302 308 307 309 309 302 294 300 292 297 294 291 288 293 297 296 296 294 297 296 292 298 299 298 297 296 295 291 291 292 293 295 299 297 297 297 296 295 295 295 295 295 294 292 291 291 293 289 289 287 285 284 281 281 287 289 289 289 287 283 284 288 290 291 291 292 296 298 301 302 294 290 295 305
313 314 315 315 315 315 315 315 315 311 309 306 304 304 305 304 302 303 300 292 292 293 292 292 292 295 297 298 296 298 296 297 298 289 291 298 298 298 297 294 291 289 292 296 300 299 299 299 299 298 297 296 295 295 295 299 297 297 293 291 292 292 289 285 287 279 280 287 288 289 283 276 279 290 294 293 291 291 290 293 297 304 304 303 306 306 308
313 314 315 315 315 315 316 315 315 313 309 307 307 305 308 308 304 302 297 290 291 294 292 291 293 296 295 297 298 296 295 297 295 299 294 296 296 297 297 297 295 289 299 301 301 301 302 301 301 299 299 299 299 298 299 296 296 299 296 293 290 291 291 286 288 282 280 285 286 282 275 278 290 294 296 295 295 295 294 298 302 302 303 305 304 304 304
313 314 315 315 315 315 316 315 315 314 312 309 307 305 310 310 305 301 297 293 290 293 291 293 298 298 298 297 298 298 298 298 301 302 299 298 297 297 299 298 297 299 303 300 301 299 295 293 293 295 295 298 298 298 296 296 295 296 296 297 293 289 287 287 287 285 284 280 279 271 275 286 293 293 295 299 300 299 299 297 300 301 302 303 302 304 304
313 314 314 315 315 315 316 316 314 314 313 310 306 306 309 309 304 299 298 293 295 296 296 294 296 297 298 297 297 298 299 298 298 300 297 301 298 298 301 303 303 304 303 302 299 294 289 288 285 287 288 291 289 289 294 295 296 295 295 295 297 294 290 288 282 287 278 280 278 280 287 287 289 289 294 296 293 294 294 289 294 300 301 302 301 303 303
313 313 314 314 315 315 316 315 315 315 314 311 307 308 307 310 308 303 303 297 294 296 294 289 294 298 299 299 298 293 293 295 295 295 301 303 300 302 302 306 305 304 303 298 293 293 290 287 282 281 280 277 276 278 290 289 295 297 296 295 296 294 287 288 282 284 285 281 277 275 278 274 281 294 299 300 300 300 300 295 293 301 301 303 302 301 303
312 313 314 314 314 315 315 315 315 315 314 311 308 307 309 311 310 308 303 299 293 288 293 298 301 300 296 296 299 295 293 293 294 294 295 297 302 302 305 305 305 305 304 300 294 291 290 285 283 278 274 277 281 278 277 286 286 294 295 294 294 293 294 289 285 284 284 282 276 273 271 279 289 291 296 298 300 300 301 295 289 300 301 301 302 302 303
312 313 313 314 314 314 315 315 315 315 315 312 306 306 308 312 310 306 302 300 297 292 299 305 305 301 294 294 298 296 296 293 294 290 290 292 298 302 304 306 305 305 303 295 293 291 288 286 283 276 278 283 277 275 280 279 281 284 290 290 289 288 287 285 283 283 284 282 278 277 281 281 290 294 296 298 300 301 296 284 286 298 300 301 302 302 302
312 312 313 314 314 314 315 315 315 315 314 312 308 304 306 311 312 308 305 300 297 295 299 308 302 295 293 294 295 301 301 298 298 297 293 295 299 299 302 303 298 304 303 293 293 287 286 284 280 279 278 286 286 282 275 279 278 279 278 283 281 283 285 283 282 284 285 286 283 284 286 293 294 295 297 298 302 297 285 280 290 297 298 302 303 302 302
312 312 313 313 314 314 314 314 315 315 315 312 309 308 308 311 312 310 305 301 297 293 303 309 310 305 306 306 302 303 302 300 296 291 291 291 295 302 303 303 303 293 298 293 291 286 284 285 288 284 280 285 288 277 283 280 277 284 285 278 277 280 284 286 284 281 280 282 282 283 286 294 294 297 298 301 296 283 281 292 298 298 300 302 302 301 303
312 312 312 313 313 314 314 314 314 315 314 313 309 304 309 313 313 310 303 297 299 296 302 305 309 304 309 304 298 297 298 297 297 293 291 288 297 302 293 291 295 298 293 294 288 290 285 282 284 288 282 281 284 287 282 279 286 282 281 284 279 279 278 275 276 282 284 282 280 280 277 291 298 297 296 300 288 288 295 298 300 302 301 301 301 301 302
311 312 312 312 313 313 313 314 314 314 314 314 310 304 306 313 314 312 310 304 297 294 298 308 311 307 309 307 307 307 304 298 298 296 296 295 299 296 286 286 289 293 290 290 284 285 288 285 287 285 286 282 286 287 277 278 282 288 288 285 284 287 278 276 279 284 275 278 276 278 286 291 298 295 288 293 297 300 300 299 296 300 300 299 299 299 301
311 312 312 312 313 313 313 313 314 314 314 314 311 305 303 310 315 316 315 309 300 297 300 307 310 309 310 312 311 311 310 308 307 305 299 297 300 296 295 297 297 296 296 295 292 291 291 289 291 288 284 285 290 281 282 278 276 281 292 287 278 290 284 282 277 284 283 280 282 288 293 295 298 298 296 297 300 301 299 299 297 297 297 299 298 298 300
311 311 312 312 312 313 313 313 313 314 314 314 311 304 304 308 310 314 310 304 303 306 310 308 310 311 314 315 317 316 315 315 310 309 304 298 297 299 298 298 296 303 302 297 290 289 289 290 286 288 286 286 284 281 285 282 276 282 282 290 285 291 292 291 288 286 291 293 293 294 294 295 296 297 296 297 299 299 299 297 296 297 298 299 298 299 299
311 311 311 312 312 312 313 313 313 313 313 313 312 303 302 307 308 310 308 306 301 300 302 305 304 302 306 308 313 314 315 314 313 310 311 306 295 296 300 302 304 304 299 301 300 293 294 292 292 291 283 288 291 283 279 279 282 283 284 284 288 292 292 289 284 289 286 281 290 292 292 293 294 294 296 298 298 297 297 297 297 297 298 299 300 299 300
311 311 311 311 312 312 312 312 312 312 313 313 311 311 310 307 309 311 306 299 297 296 293 298 301 307 312 314 314 313 311 315 315 311 311 308 305 299 297 303 307 300 299 302 303 299 296 291 292 290 284 291 292 283 288 284 284 289 281 282 286 286 294 288 288 287 285 286 289 291 293 292 293 293 293 293 295 296 297 297 298 298 299 299 300 300 300
311 311 311 311 312 312 312 312 312 312 312 313 312 305 303 305 308 310 310 308 305 302 298 296 302 311 313 311 309 311 315 315 314 312 311 310 309 307 306 308 306 307 305 306 301 298 295 294 292 290 287 290 295 286 285 289 286 290 287 285 288 290 294 282 287 286 288 291 293 292 292 292 293 296 295 295 296 296 296 297 297 298 298 299 300 301 300
310 311 311 311 311 311 312 312 312 312 312 313 312 308 306 307 310 309 309 308 301 296 297 295 300 306 310 307 312 314 315 314 314 311 309 312 310 308 308 306 304 302 304 303 302 299 297 295 293 291 293 291 296 292 292 291 290 288 286 289 294 291 285 288 287 285 283 285 287 290 285 285 288 291 294 295 297 297 296 297 297 297 297 298 298 299 301
310 311 311 311 311 311 311 312 312 312 312 313 312 310 309 306 308 311 313 312 305 296 296 297 299 303 310 307 313 313 313 313 313 312 310 309 310 308 307 306 305 303 302 301 297 296 295 293 293 296 297 297 294 291 295 294 294 290 290 290 294 290 290 289 286 282 283 287 290 291 291 290 292 293 295 295 296 296 296 296 296 297 298 299 298 298 299
310 310 311 310 311 311 311 311 311 311 312 311 310 309 308 309 310 312 313 315 311 306 305 305 307 304 297 303 312 310 312 312 311 311 311 310 309 308 307 307 305 305 305 303 300 298 295 296 298 296 294 300 295 290 291 287 287 286 291 294 294 294 294 293 292 291 291 291 293 293 291 291 293 294 295 296 297 297 296 297 298 298 298 299 299 299 299
310 310 310 310 310 311 311 311 311 312 311 310 307 305 301 306 311 311 313 315 314 311 304 301 297 300 308 309 307 310 311 313 312 311 310 309 308 309 309 307 305 308 306 303 300 296 297 296 300 302 304 306 298 296 291 287 286 289 293 295 296 296 296 296 295 293 291 293 294 294 294 295 296 296 297 298 299 300 298 298 298 298 299 300 300 300 301
310 310 310 310 310 310 311 311 311 311 311 308 306 301 298 297 305 317 315 317 318 312 307 305 300 306 303 308 308 307 309 311 309 309 309 309 308 308 311 309 310 312 302 301 300 301 302 298 299 301 304 304 301 294 289 288 285 286 293 296 296 296 296 296 297 297 296 295 296 296 295 296 296 295 297 298 299 299 299 299 301 303 302 302 301 301 301
309 309 309 309 310 310 310 311 311 311 310 305 303 304 303 305 308 310 311 313 318 311 305 299 299 297 298 303 308 311 310 310 313 313 309 313 306 309 309 309 306 309 305 301 304 301 300 301 300 301 299 305 303 297 296 291 289 290 294 295 296 297 297 296 295 296 296 297 295 294 293 294 295 294 293 297 298 299 300 300 300 300 303 302 302 301 301
309 309 309 309 310 310 310 311 312 311 308 309 310 310 310 310 310 310 311 312 314 310 310 303 297 300 296 298 306 308 311 310 306 305 303 310 305 308 305 309 307 306 315 304 297 296 301 301 301 299 301 305 299 296 293 291 293 297 297 298 296 297 296 297 297 296 296 296 296 292 290 292 294 297 298 298 299 299 299 300 300 301 301 301 300 299 299
309 309 309 310 310 310 310 311 312 311 310 306 303 305 309 310 310 310 312 313 311 312 310 302 298 296 296 305 299 304 314 304 301 303 299 308 307 305 303 306 306 300 304 300 301 301 303 303 298 298 299 298 301 296 290 294 297 298 298 297 297 297 297 297 296 295 296 296 297 296 296 296 297 297 298 298 299 300 302 301 302 300 299 298 298 298 299
309 310 310 310 310 311 311 311 308 307 303 306 306 309 312 313 311 312 313 312 305 303 303 304 303 296 296 297 296 299 311 306 300 305 300 303 311 301 304 299 302 297 298 308 301 299 298 298 301 295 293 300 296 289 291 294 296 298 298 297 297 296 295 294 294 296 297 298 297 297 297 297 296 296 297 298 298 298 299 300 300 299 297 297 298 298 299
309 310 310 311 311 311 310 309 307 306 304 304 307 317 320 319 316 313 314 316 312 304 302 302 302 297 298 292 290 298 311 304 304 304 304 305 303 308 305 302 294 299 306 300 296 299 297 303 299 291 300 292 290 292 294 297 298 298 298 297 297 297 296 295 295 296 297 298 298 297 297 296 294 293 294 296 297 298 299 299 299 298 297 297 297 299 299
310 310 311 311 310 308 304 306 310 307 308 313 317 319 322 320 318 318 314 312 315 315 305 302 298 298 298 295 299 302 305 295 302 300 301 299 298 305 303 300 295 302 301 299 298 296 300 306 299 293 293 290 292 298 299 300 300 299 299 299 300 299 298 296 298 297 296 296 297 295 295 294 293 293 293 295 297 298 298 298 297 296 295 296 297 298 298
310 310 309 307 306 305 307 307 309 312 317 317 319 312 308 311 304 308 308 304 309 311 305 304 298 301 303 298 293 306 304 300 303 296 296 301 294 294 302 299 300 300 291 295 298 304 299 297 295 291 293 297 298 300 300 302 302 301 301 300 299 299 298 297 299 296 294 293 292 292 295 293 292 292 293 293 295 297 298 299 298 298 298 298 298 299 299
309 308 308 308 306 304 308 313 316 319 314 314 314 307 303 306 303 301 302 304 307 301 306 302 299 302 300 297 299 307 303 300 298 297 292 301 296 292 298 291 299 297 288 292 296 303 292 292 294 292 290 294 295 298 302 301 301 302 301 301 300 300 299 298 298 295 293 292 292 293 294 292 292 292 294 296 297 299 299 299 298 298 298 298 298 299 300
308 305 306 306 305 310 315 315 318 315 314 307 307 303 300 305 296 292 305 297 297 302 303 297 303 302 304 300 298 298 309 301 295 294 295 298 305 293 298 296 297 294 286 286 291 302 292 283 290 290 288 292 295 299 301 301 301 300 301 301 301 301 299 299 298 298 297 296 296 296 297 296 297 295 295 296 298 298 298 298 299 299 298 298 299 300 299
305 307 310 311 311 311 314 314 313 312 307 303 304 306 304 295 301 301 299 295 295 298 305 302 304 301 306 306 304 298 306 309 305 305 300 295 303 303 296 292 300 291 288 287 297 298 294 289 288 286 286 292 295 299 301 301 301 301 301 301 300 300 299 299 298 299 299 298 299 297 297 298 299 299 299 299 298 296 296 298 299 299 299 298 298 298 300
309 308 308 308 309 310 311 311 309 307 308 308 301 290 293 298 303 301 300 293 294 300 303 303 300 300 300 304 303 303 303 309 306 304 299 293 301 296 293 296 298 290 286 294 299 295 292 285 283 284 291 295 298 300 301 299 301 300 300 301 302 301 300 298 297 298 299 297 297 297 297 297 297 298 299 298 297 297 298 298 299 299 298 299 300 300 300
309 309 307 306 308 308 309 298 306 307 292 292 290 288 294 289 293 294 297 303 306 301 302 310 308 309 309 311 304 307 303 307 301 299 296 292 300 299 294 291 291 286 292 299 294 290 286 282 281 285 293 297 300 300 300 300 300 301 301 301 301 300 300 298 298 297 298 298 298 298 299 298 297 298 300 299 299 299 300 301 300 300 299 299 299 300 301
309 310 307 307 302 307 306 290 306 303 294 291 287 285 290 291 294 299 298 298 302 301 304 300 302 301 298 305 300 302 304 303 304 300 297 300 296 292 291 284 285 294 300 294 291 284 284 289 290 293 296 300 303 302 301 302 301 300 301 301 301 301 299 298 298 298 297 299 299 300 299 298 298 300 300 300 300 298 298 298 300 302 302 300 299 299 301
305 303 300 298 294 299 294 287 300 294 287 291 294 295 296 293 295 297 297 303 304 301 305 305 302 301 301 305 304 303 301 296 304 295 292 295 290 291 288 285 292 295 290 284 284 283 286 287 293 297 299 300 301 302 303 302 301 301 300 299 300 300 298 297 298 297 297 296 297 299 297 298 298 299 300 299 299 299 299 299 300 301 299 299 299 299 301
301 292 291 292 291 290 290 287 288 285 293 300 297 299 297 298 298 300 306 309 304 304 303 304 304 303 302 304 299 296 301 298 293 294 296 294 289 285 293 298 295 287 286 285 279 276 280 287 292 295 298 301 302 303 303 302 301 301 300 298 299 300 298 298 297 297 297 297 297 297 298 298 297 299 299 299 299 300 300 301 301 300 300 299 298 299 301
299 305 298 292 290 290 299 289 290 294 299 300 302 303 301 301 304 305 307 308 306 306 307 306 305 304 300 298 299 298 301 299 294 296 296 288 289 291 298 289 284 285 282 278 278 282 287 292 295 297 299 301 303 303 303 302 302 301 300 300 301 299 298 298 297 297 297 297 297 296 297 297 298 299 299 298 297 297 300 302 301 301 301 300 300 301 301
293 298 298 291 287 290 291 296 303 304 305 304 304 305 307 308 305 303 307 309 308 308 306 305 302 299 298 302 301 295 295 297 294 293 296 293 294 290 284 286 285 288 288 285 285 290 291 293 295 298 299 303 303 302 303 303 302 300 300 300 299 299 298 298 297 297 298 297 297 297 298 298 298 298 298 298 298 298 299 301 301 301 301 301 301 301 301
306 298 290 288 295 299 298 301 302 299 303 305 306 307 305 304 304 306 308 308 307 307 307 303 302 299 294 297 295 293 290 296 288 286 294 290 287 283 284 279 280 278 289 289 288 292 294 296 298 300 301 303 303 302 302 304 304 301 301 300 299 299 297 298 298 299 299 298 298 297 297 299 298 298 297 298 298 298 299 299 300 300 300 300 301 301 301
298 295 301 296 297 298 300 300 299 297 303 304 304 304 304 303 303 306 309 308 308 307 305 303 304 297 294 295 286 288 289 293 293 289 287 285 287 287 286 279 281 283 286 291 292 295 297 299 300 300 301 302 303 302 302 302 304 304 301 301 301 299 299 299 299 299 298 298 298 298 299 300 297 297 297 297 299 301 301 300 300 299 299 300 301 301 301
302 297 295 303 299 298 301 296 296 297 298 301 303 303 305 303 305 304 310 309 306 302 299 294 294 294 287 285 284 282 285 295 291 288 287 287 291 288 284 282 285 289 292 296 297 298 299 300 300 299 300 301 302 303 303 304 304 303 302 301 300 299 299 299 299 299 298 299 300 304 298 296 296 297 298 300 301 300 298 300 301 300 300 300 301 301 301
294 293 296 303 306 306 305 304 304 303 303 305 304 306 307 304 306 309 313 307 304 299 295 297 295 287 284 284 287 291 294 291 288 289 285 288 292 287 288 290 292 295 296 297 298 300 301 301 301 303 301 302 304 303 304 304 303 304 303 302 300 299 299 299 299 299 298 298 298 297 297 298 301 301 303 299 297 297 295 296 301 300 301 301 302 302 301
Wind_Speed
21 20 21 21 22 22 23 24 23 22 21 8 7 3 4 5 3 9 9 5 3 5 4 4 4 4 5 5 9 6 6 4 6 9 10 6 7 4 7 8 4 9 5 7 6 6 7 6 7 6 9 9 8 6 11 10 8 3 7 3 6 7 3 8 8 6 6 9 8 6 15 9 8 10 10 12 10 9 4 4 4 1 6 5 6 3 3
20 20 21 21 22 23 23 24 23 20 16 4 5 2 2 1 3 7 8 7 7 11 5 4 6 7 7 8 7 6 6 8 7 8 8 5 4 5 5 5 7 4 8 9 8 7 4 9 7 5 3 4 7 10 9 9 6 6 2 2 8 2 2 2 5 8 8 7 5 6 7 11 6 6 8 9 11 13 11 3 4 4 3 4 1 2 3
20 20 20 21 22 23 24 25 25 22 17 6 1 2 1 2 3 4 6 8 9 7 2 3 5 4 6 6 7 4 4 5 7 7 8 6 4 2 5 5 5 5 5 6 6 11 7 3 6 5 4 4 4 8 7 7 6 7 9 11 3 6 2 4 3 2 4 5 5 7 11 11 8 3 11 8 14 15 12 7 6 4 5 6 2 3 7
19 20 20 21 22 23 25 26 27 25 19 7 2 1 2 5 3 5 6 6 7 4 2 5 4 5 3 7 6 5 4 3 8 6 6 8 4 6 3 6 5 9 7 8 9 9 10 7 1 3 3 2 3 5 8 4 4 10 15 10 4 1 2 2 1 2 3 4 5 7 8 8 7 11 9 12 9 8 7 3 1 2 3 5 2 1 9
19 20 20 21 22 23 25 26 28 28 22 7 3 2 3 1 4 3 5 6 8 5 6 6 7 4 2 5 3 8 9 6 5 10 3 7 7 3 9 7 6 5 7 4 5 6 8 6 5 4 2 2 3 7 6 7 10 13 8 9 3 3 4 3 2 2 4 4 3 7 10 10 8 9 10 10 9 7 8 5 5 4 3 5 3 6 7
19 20 20 21 21 22 24 25 28 29 28 9 3 5 3 4 2 2 1 2 3 6 7 8 8 8 10 6 4 7 9 10 6 5 6 3 8 4 4 10 8 6 5 3 4 4 3 5 3 2 2 1 4 4 6 3 8 10 3 4 4 2 1 2 4 6 6 8 7 9 9 7 8 6 6 9 8 8 6 7 7 6 3 4 6 8 6
18 20 21 20 21 22 23 25 27 28 27 17 4 6 5 2 1 1 4 3 3 4 5 11 10 11 6 3 8 8 8 7 5 3 4 5 4 5 4 8 8 6 6 5 3 4 3 4 2 3 5 5 3 3 4 5 7 5 3 3 1 2 1 1 5 6 6 6 8 9 10 11 12 8 6 6 9 9 7 8 11 9 6 6 3 5 9
18 19 20 19 19 21 22 23 26 27 27 11 10 8 3 6 4 6 5 1 2 4 3 4 9 8 6 4 6 2 4 6 3 3 3 2 3 3 5 7 8 7 7 5 4 2 2 0 2 4 5 7 4 3 0 1 5 5 2 1 3 4 2 7 4 6 5 4 7 9 11 11 14 13 8 4 3 7 7 7 8 7 2 3 6 5 7
18 17 20 19 18 19 20 21 23 27 23 7 6 3 4 2 1 1 2 6 4 3 4 6 6 4 5 5 3 4 3 3 2 1 0 1 1 3 3 5 6 4 5 4 3 2 1 1 1 1 1 2 1 2 3 2 3 4 3 2 1 1 2 2 1 4 6 4 8 9 11 12 12 13 11 6 3 2 6 7 6 5 7 7 6 3 3
16 17 18 17 16 18 19 19 21 22 19 4 2 6 3 0 1 1 1 3 4 4 1 3 5 6 3 3 1 2 3 3 3 2 4 1 2 3 2 4 3 2 5 1 3 1 1 2 2 1 1 2 3 2 3 0 1 1 0 0 1 2 1 1 1 1 4 4 7 10 8 9 11 9 3 4 5 5 8 4 4 4 7 4 2 3 3
15 16 16 16 16 17 17 18 19 19 11 7 5 3 4 6 5 5 3 5 5 4 3 5 6 2 3 5 3 5 5 1 1 2 1 1 3 4 3 2 2 1 2 3 1 3 2 1 1 1 3 4 4 3 3 3 1 1 0 1 0 2 3 1 2 1 1 5 6 6 7 5 8 2 6 6 9 11 9 5 3 6 7 2 3 4 5
14 15 15 15 14 16 17 17 18 18 12 4 1 2 2 1 0 2 5 7 2 5 7 5 3 3 5 3 4 2 3 1 1 1 1 2 3 4 4 4 4 4 2 1 2 2 1 2 2 1 1 2 2 2 2 5 5 5 3 1 1 1 0 2 1 1 1 1 5 5 3 11 1 4 5 6 8 9 7 4 8 8 10 9 9 9 10
14 14 14 15 14 15 15 16 17 17 17 8 3 4 4 3 2 2 3 3 4 4 6 3 4 5 6 5 2 1 4 4 2 2 2 1 2 4 4 3 2 0 2 3 6 5 3 2 3 2 4 1 3 7 8 7 6 6 6 5 1 0 2 1 0 1 2 3 1 0 10 4 9 11 7 4 2 5 4 4 9 10 9 8 6 8 10
13 13 14 14 14 14 15 15 15 16 17 11 5 3 3 4 4 3 2 2 1 1 2 5 6 5 3 1 0 2 3 4 4 8 5 6 4 4 5 3 1 0 3 2 5 3 3 5 2 5 6 3 2 3 3 2 4 5 6 5 3 3 1 1 2 1 2 4 6 8 7 14 12 4 3 6 4 5 4 2 0 5 6 8 6 7 8
12 12 13 13 13 13 13 14 14 15 16 14 3 2 4 4 3 2 0 2 1 3 2 3 1 1 3 2 1 3 3 2 6 5 3 3 3 4 4 1 2 4 3 4 2 3 1 1 1 2 3 3 0 2 2 1 3 2 4 4 3 1 1 1 2 1 4 3 4 3 2 5 2 0 3 3 5 4 4 3 3 4 7 7 6 7 8
11 11 12 12 12 13 13 13 13 14 16 14 5 4 4 2 2 2 2 1 2 3 1 4 4 1 0 1 1 3 1 1 0 1 4 4 2 3 3 3 3 5 3 3 1 2 1 2 1 1 1 1 1 1 1 3 3 4 4 6 5 5 3 3 6 2 1 1 3 3 4 5 3 5 8 10 7 9 6 2 3 2 7 8 7 8 7
10 11 11 11 11 12 12 13 13 13 13 13 5 4 2 3 3 1 1 2 2 2 4 1 1 2 3 3 4 1 0 1 0 1 1 3 2 2 5 3 2 2 2 2 1 1 1 1 2 1 2 1 1 2 0 0 1 4 6 5 6 6 2 2 2 1 2 2 4 6 3 5 3 6 7 10 9 9 4 6 3 1 8 8 8 7 7
10 10 10 11 11 11 11 12 13 13 13 12 5 1 3 3 2 1 3 2 2 3 1 3 3 2 1 2 2 2 1 2 2 1 2 3 0 1 2 2 2 3 3 0 1 1 1 2 2 1 1 2 2 2 1 2 0 2 1 1 2 2 1 2 3 3 5 6 5 4 6 2 2 5 9 10 7 1 2 8 1 3 6 7 6 6 4
9 9 10 10 10 10 10 11 12 13 13 14 8 1 2 3 3 4 3 2 2 1 5 7 2 1 3 1 1 1 2 2 4 2 1 3 1 2 0 1 0 0 1 0 1 1 1 1 0 2 2 1 1 2 1 1 2 0 1 2 2 2 0 1 2 1 3 4 4 6 6 1 2 3 6 5 2 3 9 0 1 6 6 6 4 4 4
9 9 9 9 9 9 10 10 11 11 12 11 6 0 6 6 1 5 4 2 1 2 5 3 1 1 1 0 2 1 5 3 2 2 3 1 2 2 5 1 2 1 3 1 1 0 1 2 3 0 0 2 2 3 1 3 1 3 2 2 2 3 1 2 1 1 0 0 3 4 6 0 1 6 4 1 1 3 2 7 4 4 7 6 3 2 2
8 9 8 9 8 8 8 9 9 10 11 11 6 2 5 4 2 3 4 4 1 2 6 2 1 4 1 4 6 4 3 6 3 2 5 3 3 3 0 2 3 1 1 2 2 1 2 0 0 1 2 3 1 1 2 1 2 4 4 3 3 2 2 1 2 3 2 2 3 4 2 1 2 3 2 2 3 4 4 4 8 4 6 6 6 4 2
8 8 8 8 7 7 7 8 8 8 8 11 8 1 1 3 4 3 1 3 1 4 6 6 3 8 10 10 10 9 9 10 10 6 5 2 1 4 3 2 2 2 1 2 1 0 1 1 0 0 0 1 1 3 3 1 2 2 0 3 1 6 4 5 3 3 4 6 6 6 3 3 2 2 2 4 5 3 3 3 4 7 5 5 6 7 6
8 8 8 8 7 7 6 7 7 7 7 8 6 1 2 4 5 4 3 2 2 3 3 5 4 5 6 9 11 12 12 10 7 2 5 4 1 0 3 2 2 1 1 2 4 3 3 3 3 3 1 2 5 1 1 4 2 2 4 6 3 2 3 1 2 5 4 6 10 9 9 4 3 3 4 6 4 3 3 4 6 5 6 6 7 8 9
7 8 8 8 7 7 7 7 6 7 6 5 3 0 2 3 5 4 4 1 0 6 5 1 2 3 1 5 8 6 4 5 7 6 4 7 4 1 1 1 2 1 0 2 4 4 2 2 2 2 2 3 2 2 3 3 5 4 2 1 2 3 3 3 3 2 1 5 2 5 4 1 3 5 5 3 2 3 3 5 6 8 9 9 8 9 9
8 8 8 8 7 7 6 7 7 6 6 5 5 4 3 4 2 0 2 1 3 2 1 6 4 10 4 6 7 6 3 2 3 3 6 6 7 7 6 6 6 6 5 4 1 5 1 2 1 1 2 4 5 4 3 3 5 4 3 5 1 2 3 1 5 2 4 8 4 3 2 3 4 2 1 5 5 8 7 6 7 8 10 10 10 9 10
7 8 8 7 7 7 7 6 7 6 4 4 5 2 2 4 2 4 2 1 1 1 3 3 7 6 6 11 11 9 10 11 8 6 9 11 10 9 7 3 2 2 4 3 6 5 3 1 1 2 4 4 2 2 3 7 2 2 6 8 7 5 7 4 4 5 7 6 8 5 5 5 2 1 3 4 4 5 8 9 10 11 11 12 11 8 9
7 8 8 8 7 7 7 7 6 7 6 4 3 2 4 5 4 3 1 1 1 2 1 5 6 4 4 12 13 9 9 7 6 4 7 8 7 5 4 6 7 4 6 3 1 4 2 2 3 4 4 4 3 3 2 1 3 2 3 4 3 7 6 3 2 4 6 8 6 2 3 6 5 5 7 8 5 5 7 9 10 10 11 11 13 13 10
7 7 8 8 8 7 7 7 7 6 5 5 4 5 4 5 5 4 4 3 3 2 2 4 6 10 8 9 6 5 10 8 5 6 4 8 12 10 9 9 9 7 4 6 2 3 3 5 6 3 2 2 1 4 2 2 1 2 6 6 7 8 8 7 7 6 8 6 5 5 5 5 7 8 7 6 4 5 9 9 9 10 10 11 12 13 12
7 7 7 8 8 7 7 7 7 7 5 3 4 6 7 9 9 7 7 4 2 2 3 6 6 5 3 8 12 11 8 5 5 6 7 5 10 11 10 10 10 8 5 3 3 3 4 5 4 4 3 3 2 3 1 3 4 8 9 5 7 8 8 11 12 7 5 5 6 6 4 6 7 6 6 7 6 6 9 10 9 9 10 11 11 11 12
7 7 7 7 7 8 7 7 6 5 4 3 3 1 3 3 2 6 6 5 3 1 3 4 6 3 3 4 8 10 8 6 5 5 7 7 3 6 4 0 3 5 4 5 6 4 4 2 2 2 3 2 2 1 2 3 4 7 4 7 11 6 6 8 7 8 6 4 4 6 7 8 7 7 6 7 7 6 8 9 9 10 10 10 11 12 10
7 7 7 8 8 8 8 7 6 5 2 3 1 2 1 0 0 2 1 3 4 2 2 3 7 6 5 4 6 10 11 6 5 5 2 7 6 5 4 6 1 2 1 1 1 3 2 3 2 1 2 3 4 3 4 2 4 3 5 7 8 8 8 8 6 7 6 4 4 3 3 6 4 2 6 8 9 7 7 7 10 12 13 13 12 11 11
6 7 7 8 8 8 8 7 6 3 3 5 5 3 1 1 1 5 6 5 1 3 1 4 4 2 3 3 3 2 7 5 1 2 2 0 2 1 3 2 2 4 4 4 1 1 4 4 4 6 5 7 7 3 3 4 8 9 3 6 6 7 6 5 6 6 4 5 3 1 3 6 4 6 8 6 5 4 6 8 9 9 13 12 10 10 10
6 6 7 8 8 8 8 8 7 5 5 6 12 18 20 20 20 16 3 3 0 2 1 2 4 3 3 5 7 8 4 0 1 0 0 1 1 1 3 1 1 2 2 3 4 4 4 5 4 5 4 6 3 2 3 9 12 8 6 7 8 8 7 6 6 5 6 5 7 7 7 7 5 8 11 9 6 5 5 7 9 9 10 11 12 12 11
6 6 7 8 9 8 7 6 6 5 5 4 6 6 6 12 13 15 5 1 1 1 1 2 2 2 5 3 5 6 2 0 1 3 1 3 2 3 1 0 0 2 3 7 3 2 1 2 3 2 3 4 2 1 6 9 9 9 7 7 6 5 5 5 5 5 6 6 7 9 9 8 6 3 2 4 5 5 5 6 7 9 10 10 11 10 11
5 6 7 8 8 7 7 6 3 3 3 3 5 6 5 7 12 11 11 5 3 1 1 2 2 3 3 3 3 7 1 1 1 0 2 3 1 0 1 1 0 2 4 1 1 3 3 3 5 4 6 4 4 5 7 6 7 7 5 6 4 6 4 4 4 7 6 5 4 5 6 6 5 5 7 6 6 5 4 5 6 7 9 10 11 11 11
6 7 7 6 4 4 2 3 3 3 3 3 5 3 0 4 6 5 7 2 1 1 1 1 1 4 2 4 3 3 2 2 1 0 1 1 1 0 1 1 3 4 1 3 4 2 4 3 4 5 4 4 8 8 7 5 7 7 8 9 7 10 8 9 4 5 4 4 6 6 6 4 3 4 3 4 4 4 3 5 6 6 8 10 11 11 10
5 5 3 0 1 2 2 3 3 4 5 4 3 4 4 8 5 5 3 0 1 1 2 2 4 6 5 5 2 2 3 3 1 0 1 1 2 0 1 1 4 1 1 2 2 4 1 2 2 2 4 6 7 6 7 7 9 10 10 8 6 6 5 5 4 3 2 3 3 2 2 2 2 3 3 3 4 4 3 4 4 7 10 11 12 11 11
3 2 2 1 2 1 1 2 4 6 6 2 3 2 2 2 1 1 1 1 1 2 3 2 6 4 1 2 5 4 0 2 0 1 2 0 1 3 1 2 2 1 4 3 4 3 3 1 4 4 6 7 6 4 6 6 7 7 7 6 6 6 5 4 4 4 3 1 1 1 2 1 3 3 3 3 4 3 3 3 3 5 7 9 10 11 12
2 2 2 3 1 1 0 2 0 9 6 1 1 0 1 0 0 1 3 2 1 3 3 4 6 3 3 2 7 2 3 1 1 1 1 0 1 3 1 1 0 1 2 2 1 4 2 2 2 2 6 3 4 6 6 5 4 5 7 7 7 6 5 4 5 5 5 5 5 4 4 3 4 4 3 3 3 2 2 3 4 6 7 8 9 10 12
2 2 1 2 2 2 1 3 3 2 1 0 0 1 1 1 1 1 2 1 1 1 3 5 4 3 7 8 6 4 1 3 3 3 3 1 1 1 1 1 0 1 2 2 1 2 1 1 2 2 6 4 6 3 7 6 5 4 6 6 6 5 5 5 4 5 6 5 5 5 4 4 3 2 1 2 3 2 3 3 4 6 8 8 11 11 12
2 2 2 1 2 3 3 0 0 0 0 1 0 1 0 1 2 2 1 2 2 2 2 2 2 2 3 4 4 6 1 0 1 0 1 2 1 0 1 1 0 1 2 2 0 0 0 1 1 3 6 4 3 6 7 5 5 5 5 5 5 4 4 5 5 4 4 3 3 3 2 2 2 2 2 3 2 3 3 3 5 6 8 9 11 12 12
1 1 2 4 5 4 3 1 1 1 1 1 0 2 2 2 1 0 1 1 2 0 0 1 3 2 3 5 5 3 2 1 1 0 1 2 0 1 2 1 0 1 2 1 0 0 0 2 2 4 6 4 3 5 6 6 6 6 5 6 5 5 4 5 6 4 4 5 4 4 3 1 3 2 3 2 3 3 3 3 4 5 7 9 9 10 11
10 6 3 2 2 1 1 0 2 1 1 0 1 2 1 1 1 1 2 1 1 0 2 0 2 3 3 1 2 0 2 1 1 1 1 2 0 0 1 1 0 1 2 0 0 1 1 2 3 5 5 3 2 5 5 6 5 6 7 6 6 6 5 6 7 5 3 5 5 4 3 2 3 1 3 3 3 2 3 3 3 4 6 8 9 9 10
4 2 1 1 0 2 1 1 1 1 1 0 2 1 1 1 2 0 2 2 2 2 2 2 3 3 6 2 2 1 1 2 1 0 1 0 0 1 0 1 3 3 1 1 0 2 3 3 3 4 3 1 1 1 3 4 5 5 5 6 6 5 5 5 4 4 4 3 2 1 2 3 1 1 2 1 1 3 4 3 3 5 7 8 8 9 10
1 1 0 0 1 2 1 2 0 1 2 3 2 2 1 3 5 3 5 3 1 6 3 4 2 2 6 4 0 0 1 1 0 1 1 0 1 0 1 2 1 0 0 2 1 2 1 3 3 3 2 4 4 3 2 3 6 8 6 5 5 4 5 5 5 5 4 4 2 1 3 2 2 2 2 2 2 3 2 2 3 4 6 6 7 8 9
1 1 1 1 3 2 1 1 0 1 2 2 3 5 4 4 3 6 4 1 3 5 6 6 4 3 6 3 2 2 1 1 1 0 0 0 1 2 1 0 1 1 1 0 1 2 2 4 4 4 4 3 3 3 2 5 7 6 7 7 6 5 5 6 7 6 5 4 3 3 2 1 2 2 1 1 1 1 2 2 3 4 5 6 7 8 8
1 1 0 1 1 3 1 1 3 4 2 2 4 5 5 6 5 6 3 2 5 6 6 5 4 4 3 2 0 1 1 0 1 0 1 0 1 2 1 1 1 0 1 2 1 2 4 5 5 6 7 6 4 2 2 3 6 8 7 7 5 6 5 7 7 5 4 4 4 3 2 2 3 2 1 0 2 1 1 3 3 3 4 6 7 7 7
1 2 1 1 3 1 2 5 3 1 0 1 2 3 4 3 2 5 6 5 5 3 5 3 5 3 2 2 1 2 1 0 1 1 1 1 1 1 1 1 1 1 1 1 3 4 4 5 8 7 7 7 6 5 4 3 3 8 8 8 7 6 6 8 6 4 5 4 4 3 1 2 3 2 1 1 1 2 2 2 3 2 3 4 5 6 6
1 0 1 2 2 1 2 2 2 4 3 1 1 4 2 2 5 7 7 2 2 5 5 2 2 1 2 2 0 0 1 0 1 1 0 1 1 1 0 1 1 3 1 3 5 5 6 7 8 7 7 7 5 4 6 5 4 6 9 9 7 7 5 8 8 6 5 4 4 4 3 3 3 3 3 2 1 2 3 2 3 0 1 3 4 5 7
1 1 1 0 2 5 6 5 5 5 2 4 2 3 2 3 4 6 2 1 1 2 3 1 0 1 2 1 1 1 0 0 0 1 1 0 0 0 0 2 1 2 5 3 5 7 8 8 8 8 8 7 6 8 7 7 6 6 6 8 7 6 8 9 8 7 5 4 4 4 3 1 3 3 3 3 2 2 1 2 3 2 1 2 4 5 6
1 1 3 4 6 6 1 2 3 6 3 4 4 4 1 4 4 4 1 0 2 3 1 0 1 0 1 2 1 1 1 0 1 0 2 0 0 0 1 3 5 6 8 7 7 7 7 8 7 8 9 9 7 6 6 5 5 7 8 8 6 9 9 10 10 8 6 5 4 5 3 2 2 3 2 1 3 2 1 2 3 2 0 1 3 4 5
0 1 3 4 6 8 8 7 3 5 3 4 3 3 4 1 6 6 1 1 0 1 2 1 0 1 1 0 1 1 1 1 0 1 2 1 1 1 3 6 7 6 7 7 8 8 7 7 7 7 7 7 6 4 3 3 2 7 9 7 8 10 10 9 8 7 6 5 4 4 3 1 1 2 1 3 2 1 2 2 3 2 0 2 3 4 5
Wind_Direction
348 343 341 343 345 346 344 345 345 346 345 360 358 339 24 35 251 268 295 281 79 66 55 11 47 66 80 67 44 36 51 39 33 38 10 30 360 19 34 23 33 27 25 29 52 38 69 28 75 90 61 44 23 3 15 360 15 71 7 344 347 345 37 337 300 284 237 257 196 100 54 41 22 19 8 5 9 347 294 241 271 77 336 26 352 89 208
347 342 343 345 348 347 345 345 346 345 355 331 306 50 62 320 296 319 316 355 76 59 47 358 49 81 78 75 77 55 50 29 40 39 18 23 355 39 28 33 38 65 34 49 45 7 116 43 56 63 18 58 353 17 15 2 33 22 345 33 326 44 333 85 329 341 341 47 11 355 9 42 63 328 352 344 349 346 327 261 348 85 79 6 345 66 291
347 344 345 348 350 349 347 347 344 346 342 333 223 53 251 268 262 236 300 1 44 69 19 74 66 56 81 79 70 51 36 29 52 56 29 351 22 360 45 40 33 38 39 66 56 46 56 133 55 88 41 58 355 6 6 12 57 21 37 30 359 88 350 70 69 18 338 346 22 343 337 336 330 333 338 349 358 349 359 17 340 53 326 33 51 309 285
348 346 347 350 351 351 351 347 343 342 349 342 129 213 54 21 41 317 346 3 25 47 32 64 79 73 74 57 43 45 59 43 37 33 50 14 1 40 28 20 37 38 28 40 35 52 48 66 46 54 32 349 357 339 346 354 61 54 38 31 24 97 23 90 138 147 190 224 253 244 263 300 316 330 337 337 338 349 351 314 82 5 304 8 229 307 326
351 349 350 353 353 354 354 350 344 342 349 6 127 39 103 204 57 1 345 332 26 14 13 43 37 37 47 90 4 55 44 21 38 13 72 6 20 34 44 33 31 12 47 40 48 21 49 34 70 48 68 360 359 327 8 42 48 46 51 40 68 51 31 323 24 218 223 245 265 308 319 307 310 320 322 326 322 348 349 360 314 314 27 339 256 323 351
353 352 353 354 355 356 356 353 348 346 342 359 137 47 18 58 302 74 212 131 344 17 356 41 46 44 56 71 49 53 49 41 31 356 23 7 31 38 356 32 36 40 70 73 56 347 67 37 24 312 71 78 5 359 355 59 35 51 47 49 95 128 94 286 356 330 342 337 328 323 319 308 307 314 320 315 328 341 335 315 305 317 287 231 305 332 339
352 353 356 356 356 359 359 355 352 348 340 343 74 71 341 83 314 308 328 74 9 75 76 59 59 45 38 88 52 54 49 49 33 28 342 18 9 33 62 26 23 30 41 73 65 31 47 348 319 26 355 19 4 9 337 355 26 48 40 30 52 72 277 283 19 328 332 330 326 325 325 327 329 329 342 330 324 321 321 306 301 289 266 257 282 356 317
354 355 358 358 357 1 1 359 355 348 342 330 68 44 50 20 12 333 353 43 44 24 29 52 62 58 17 73 17 55 52 41 356 34 23 26 353 349 55 16 6 31 44 64 86 92 136 202 356 346 40 345 25 345 34 283 330 12 7 99 352 88 306 3 353 343 319 316 322 333 339 335 319 319 320 335 312 309 300 296 308 332 353 355 355 350 316
354 355 359 359 0 3 2 2 1 351 344 53 40 71 35 286 65 235 353 9 350 39 42 60 71 55 6 67 21 66 36 52 6 68 292 91 317 352 68 26 10 13 60 68 121 187 156 197 213 204 87 332 251 85 280 52 332 351 13 35 15 75 257 29 43 24 316 347 351 338 331 326 315 305 313 326 335 327 354 350 341 4 333 313 307 13 333
352 355 359 359 3 4 3 7 5 359 342 86 40 40 320 5 235 336 107 69 358 69 39 36 53 47 0 66 51 70 42 84 50 34 317 302 186 227 136 111 103 357 36 347 31 302 80 330 299 262 222 210 267 218 259 71 144 222 204 214 88 163 126 36 357 27 273 318 354 338 333 345 318 303 290 329 2 16 340 309 339 4 309 0 48 179 228
352 356 0 360 4 5 5 6 8 9 5 42 45 39 351 34 333 346 32 81 351 14 68 37 74 77 92 30 46 20 32 9 110 119 269 281 312 220 201 122 81 35 62 354 131 98 159 175 235 273 301 298 280 280 287 318 45 133 63 39 286 137 132 189 144 139 254 347 353 355 8 329 249 238 344 359 347 332 324 313 5 9 19 336 328 348 341
351 355 358 2 4 5 7 8 6 8 23 344 198 60 357 310 45 75 58 79 23 5 62 56 74 96 64 47 64 25 346 289 270 160 50 303 288 306 82 66 77 46 323 329 51 28 58 24 353 326 352 324 262 267 35 56 28 38 71 125 155 304 286 214 177 109 270 26 15 359 277 248 267 356 339 351 327 327 316 40 33 19 18 9 8 2 354
348 351 356 4 5 7 7 10 9 5 7 357 24 54 326 10 88 64 97 104 58 14 62 357 12 86 88 48 31 328 286 309 311 187 325 358 340 11 55 78 78 266 298 39 46 43 61 17 329 347 305 346 33 51 44 41 26 18 25 25 61 190 139 241 5 155 32 57 110 246 238 252 311 310 333 333 19 12 16 70 27 10 9 352 359 358 344
345 348 354 2 8 6 6 9 10 7 3 3 7 342 324 22 58 37 61 88 353 282 146 61 18 36 54 105 172 318 347 355 1 37 14 338 345 50 69 67 165 283 356 64 59 63 20 29 8 12 333 16 9 23 326 38 25 40 42 18 25 126 125 112 297 189 193 190 183 232 322 319 307 337 54 6 17 350 9 308 154 5 345 354 344 339 353
342 345 350 359 7 7 6 7 10 7 4 1 329 329 14 29 70 109 329 90 115 305 39 108 274 52 51 354 63 45 25 343 35 339 329 338 17 34 67 92 33 28 16 68 28 46 118 86 35 29 333 45 93 252 331 19 300 23 77 37 42 48 118 252 107 250 167 214 284 314 341 261 278 305 334 340 332 262 250 229 223 7 350 346 344 342 343
338 344 347 358 5 7 8 8 10 10 7 2 22 352 315 2 87 95 110 135 109 54 317 204 186 131 68 231 152 99 50 40 343 354 356 342 326 341 9 358 14 29 28 67 104 98 82 94 192 95 220 201 237 54 300 344 342 315 28 32 11 360 84 129 148 217 46 208 208 212 216 243 120 316 330 323 321 315 302 203 201 4 335 334 334 342 343
336 338 344 353 1 4 6 7 9 12 10 14 348 321 309 346 50 44 75 16 80 197 257 286 164 101 81 350 24 34 135 121 154 70 330 328 317 356 317 343 343 47 75 65 12 67 53 79 136 147 270 139 92 211 221 50 321 318 335 11 16 28 21 37 44 279 203 217 240 252 216 269 296 320 325 321 312 315 322 290 246 50 325 317 324 336 341
332 333 339 346 354 0 3 4 9 10 6 2 1 298 283 313 33 87 57 94 80 302 270 13 30 91 163 185 171 231 98 36 47 92 149 232 100 354 283 5 358 322 89 85 115 74 129 127 153 169 217 240 153 86 251 170 265 234 299 328 331 348 348 82 197 201 240 236 258 283 279 302 359 322 317 316 305 313 286 241 244 344 304 294 305 324 339
331 329 330 340 347 354 359 2 8 11 9 7 351 58 278 314 359 68 114 52 72 244 280 329 312 79 329 297 183 181 192 190 161 110 268 360 232 220 135 119 98 345 354 127 61 156 126 250 149 131 154 261 77 196 183 63 242 294 90 24 1 328 16 233 104 183 206 219 233 248 270 227 251 280 298 288 323 230 225 143 323 272 297 304 318 325 347
325 327 326 329 338 347 353 358 4 10 10 13 29 132 265 292 301 114 104 123 129 243 286 267 37 348 319 20 328 11 331 20 142 142 159 194 266 20 29 17 322 85 342 62 77 226 115 213 222 135 292 194 240 161 80 252 230 173 179 194 145 210 123 236 199 235 35 210 242 295 274 89 278 319 326 42 146 220 357 305 305 299 291 305 307 325 312
317 319 322 322 327 338 345 351 358 7 8 8 19 23 346 317 4 61 107 132 123 349 303 282 22 293 278 241 228 235 230 233 215 204 226 178 202 104 176 202 225 150 212 142 152 243 161 246 216 180 200 140 216 87 205 192 312 269 143 184 202 206 100 258 271 163 182 204 217 219 201 217 275 65 268 268 265 286 314 320 305 316 309 312 315 307 277
312 313 316 317 319 327 337 344 351 356 8 6 357 79 303 291 341 10 352 120 124 191 228 258 244 269 268 255 249 236 226 237 240 194 147 153 227 156 193 171 207 153 205 126 81 359 360 199 75 39 234 274 59 200 167 84 257 256 135 100 299 198 177 175 173 230 155 209 221 247 213 203 248 191 224 267 267 278 287 302 286 305 306 306 305 306 310
309 309 308 311 313 316 323 332 340 349 10 7 18 63 233 315 316 318 350 7 304 293 272 281 289 271 266 258 240 228 230 224 234 173 135 118 318 271 167 203 260 205 139 116 170 165 195 130 219 164 150 192 180 227 264 160 211 188 186 220 190 234 188 122 84 259 264 263 247 271 287 306 319 311 300 285 288 293 333 315 309 287 291 298 295 304 306
305 304 303 302 306 309 313 320 328 335 352 8 23 94 301 281 281 345 359 31 73 311 314 286 14 317 265 297 327 309 252 221 217 217 177 132 146 270 318 213 165 75 154 218 176 137 198 125 201 132 184 241 112 156 185 268 231 197 152 275 248 217 149 128 171 245 46 285 275 226 225 250 268 279 293 315 326 313 320 313 306 304 302 299 296 297 299
302 301 300 297 297 302 307 309 314 317 331 330 345 294 276 294 260 154 12 21 341 74 232 308 281 243 267 308 303 284 235 307 305 192 168 164 154 162 193 207 169 162 201 192 94 75 64 130 193 115 175 258 128 246 209 174 283 159 191 249 119 300 167 127 221 206 191 242 245 250 220 227 254 246 33 333 323 319 315 305 294 294 295 293 293 297 294
298 295 295 296 292 296 299 301 301 304 299 319 319 310 300 246 314 1 288 215 170 179 266 274 271 314 354 341 309 285 299 293 277 247 188 191 183 176 166 134 67 79 118 135 111 145 157 167 171 176 137 277 124 176 217 199 184 183 184 228 190 159 126 234 173 200 249 288 280 289 320 300 290 223 262 280 285 301 304 304 306 304 300 299 298 292 292
295 294 292 291 291 287 291 297 298 298 305 286 265 262 259 279 266 242 218 202 43 355 174 255 272 292 349 305 286 297 280 269 269 225 214 198 185 169 155 156 142 122 131 148 147 138 139 162 159 228 171 232 166 208 168 282 180 186 222 250 145 113 209 206 125 243 265 237 246 107 298 284 295 285 276 289 286 288 292 297 295 295 297 300 300 299 295
293 291 288 286 286 287 288 296 298 300 298 286 268 257 241 245 245 225 236 230 166 188 247 284 302 293 306 271 273 291 298 295 271 248 216 183 188 186 187 167 150 141 158 138 153 174 157 172 224 211 182 236 136 275 219 214 139 260 228 222 181 187 202 164 198 188 244 234 207 185 196 242 248 263 275 266 271 288 292 287 285 287 287 289 292 296 298
293 290 287 285 283 284 286 285 296 298 300 303 298 278 261 234 235 229 235 235 190 257 256 271 268 296 290 292 305 293 281 272 277 261 242 206 175 193 202 177 167 168 155 145 143 153 164 211 166 166 187 205 130 256 68 210 206 230 228 200 190 219 173 187 206 202 245 193 196 183 174 231 255 252 264 275 272 274 276 278 277 276 280 287 287 286 289
293 289 285 281 280 282 284 283 282 289 303 307 295 318 349 339 182 200 213 215 202 132 291 309 311 268 292 306 290 293 299 281 272 257 236 228 115 100 56 315 222 180 156 169 156 189 200 180 212 198 152 136 119 206 184 212 215 248 226 208 212 206 192 198 174 172 221 204 187 193 207 234 243 249 259 267 272 270 275 281 287 290 289 285 285 288 283
291 288 284 282 281 280 281 283 279 266 224 263 256 52 62 345 306 85 85 246 193 153 239 214 255 305 302 234 252 276 280 290 284 284 93 100 128 127 142 120 70 141 263 31 108 200 174 224 156 219 87 155 149 217 215 194 252 282 239 200 199 191 193 204 192 199 212 212 209 203 199 234 253 305 286 269 263 256 267 276 284 289 292 296 293 289 286
292 285 284 280 279 279 282 282 281 265 222 232 202 170 162 166 270 316 335 337 209 165 262 302 301 278 285 290 266 277 298 303 328 50 30 98 70 58 29 8 195 190 175 164 209 110 221 170 173 177 160 181 168 253 205 213 236 244 210 213 213 205 195 196 201 223 214 214 180 218 271 266 240 223 243 242 236 242 257 273 280 280 291 292 287 284 284
291 287 283 282 280 280 278 277 273 250 242 271 291 292 280 267 263 265 270 285 168 224 161 249 240 298 281 273 298 297 258 359 13 45 127 11 116 110 120 136 67 39 258 165 202 213 203 169 151 184 203 135 175 210 209 226 233 230 205 212 209 205 203 200 199 193 200 201 168 198 232 229 240 236 234 242 240 244 259 270 278 292 294 293 293 296 296
291 281 274 277 280 278 273 265 253 265 273 289 288 248 248 228 232 236 194 226 251 228 140 212 294 260 271 311 315 281 360 221 312 12 341 360 347 39 84 113 255 207 211 198 241 207 302 102 158 141 94 220 186 162 236 236 234 245 241 231 203 193 188 185 186 205 224 220 209 213 223 224 234 271 283 234 242 244 249 264 284 296 299 295 292 288 290
289 283 287 290 287 284 266 242 226 210 248 248 255 248 264 231 195 191 166 166 145 234 210 240 224 277 305 308 290 280 309 48 50 127 100 277 339 116 50 90 271 200 279 99 280 213 188 192 131 154 217 136 166 229 243 234 221 219 208 212 195 157 140 171 228 222 226 220 207 221 227 243 266 275 265 261 250 242 247 263 278 287 295 299 296 294 295
301 302 298 285 288 244 222 212 228 224 246 241 233 289 301 61 131 142 156 176 75 180 268 260 228 240 265 276 273 291 31 55 197 315 180 168 338 154 103 151 257 235 198 181 233 185 195 146 115 233 147 164 219 211 230 196 203 191 187 194 187 166 181 180 186 198 220 196 189 210 219 240 235 259 265 240 238 240 244 267 279 291 295 298 297 296 291
308 311 327 84 133 208 223 225 180 198 215 236 176 146 88 87 70 94 94 318 216 81 248 297 268 239 201 254 275 294 32 322 360 22 253 152 224 252 135 216 234 233 264 244 232 224 189 140 227 210 196 211 232 211 217 204 196 187 195 197 192 176 157 173 173 162 199 234 227 183 211 254 285 288 304 267 242 242 260 272 295 312 308 306 308 305 297
315 266 254 201 235 289 259 218 211 214 180 145 157 73 337 5 80 66 109 157 217 181 218 172 248 262 209 232 253 247 360 270 78 280 303 138 35 291 159 222 229 243 251 234 233 109 97 177 209 215 251 239 238 204 210 202 191 184 185 179 176 175 164 173 163 154 177 268 331 303 318 324 301 282 274 274 263 255 252 257 280 287 287 297 296 294 293
242 218 221 230 260 264 307 288 52 125 107 360 47 5 280 210 169 217 188 194 184 211 174 200 247 198 176 244 268 252 161 205 301 182 230 266 94 297 90 227 286 88 293 318 289 117 194 246 245 225 262 226 203 221 199 204 194 185 181 177 169 169 169 180 167 158 167 188 205 199 188 214 244 268 259 259 261 234 256 279 284 295 299 298 295 296 301
203 218 213 183 198 255 274 330 356 117 42 114 270 122 254 160 109 246 131 101 251 203 161 235 222 190 178 213 241 287 95 110 203 245 217 266 138 202 308 268 261 174 256 217 240 142 148 244 261 250 277 231 223 200 178 190 186 190 164 165 163 165 165 165 179 175 172 199 195 202 197 208 195 200 237 237 260 269 295 279 277 295 302 301 314 313 309
201 226 255 282 336 330 332 23 5 44 213 284 221 243 237 267 213 214 211 222 228 229 160 239 203 180 194 227 199 249 281 144 288 154 119 202 308 345 176 220 65 262 279 268 293 175 222 259 281 224 247 237 194 178 178 179 179 173 170 163 168 168 172 171 182 179 163 177 169 180 205 243 196 226 186 202 225 222 231 263 289 293 305 310 314 310 306
15 291 313 302 264 267 284 233 158 253 247 204 275 278 218 219 225 302 164 175 258 304 30 252 296 262 237 202 216 193 250 188 150 283 173 236 164 193 248 223 111 227 269 285 184 104 218 245 270 270 265 261 203 163 163 169 171 165 177 175 175 183 184 164 173 191 155 170 181 181 211 193 203 227 180 195 223 225 231 274 288 294 306 306 305 309 314
309 272 171 272 288 233 170 24 237 156 149 289 47 322 303 315 242 211 273 250 302 114 253 304 234 234 257 228 318 270 207 204 163 262 111 234 132 193 250 272 98 247 264 185 101 264 246 256 257 256 295 306 185 165 170 171 167 167 177 175 177 186 172 166 167 187 179 159 177 188 198 169 193 211 166 188 219 217 228 250 294 297 303 310 312 314 318
248 207 177 218 66 283 108 320 228 55 332 162 128 233 277 315 284 244 268 283 299 270 213 281 301 45 312 289 187 253 11 353 51 97 273 218 132 243 116 255 223 222 152 17 89 226 232 224 231 266 285 360 5 191 172 169 161 153 163 178 179 178 177 170 142 120 134 132 107 173 153 141 162 105 133 175 213 216 229 238 276 297 298 303 310 317 324
46 83 339 20 319 263 62 308 299 142 209 253 184 216 172 219 262 290 263 246 190 256 268 208 175 172 252 257 89 285 144 203 298 102 257 47 344 265 150 254 257 360 172 265 277 290 306 279 297 318 334 349 323 277 221 169 169 165 172 173 185 172 171 160 158 154 158 153 169 154 138 141 108 138 166 180 219 216 193 233 276 295 294 303 312 325 335
120 167 103 73 299 299 129 249 154 297 271 171 199 200 194 245 232 261 247 224 257 289 296 281 255 230 266 239 175 212 133 104 49 294 123 83 92 283 245 199 90 31 302 50 310 247 227 257 289 275 258 263 288 312 276 196 179 168 157 178 195 185 183 149 159 162 172 164 140 110 119 91 81 109 150 248 251 264 209 201 260 280 290 307 324 333 334
1 324 130 137 168 267 147 215 241 207 195 216 214 180 196 235 233 249 242 214 243 255 267 264 251 220 228 278 38 347 70 118 137 248 73 54 224 263 61 81 311 323 317 300 289 283 295 304 285 276 275 275 275 283 262 230 187 174 177 181 180 188 179 156 168 166 177 164 145 130 126 102 107 156 192 282 322 330 259 199 234 273 301 310 314 321 337
210 251 102 216 239 220 199 245 217 259 352 178 187 160 217 238 309 287 253 215 227 272 282 314 325 343 326 293 106 207 201 208 86 295 178 240 346 12 357 335 269 186 173 238 251 244 244 250 270 265 258 262 248 242 273 274 225 185 176 177 181 184 175 159 165 161 157 147 142 136 134 131 156 183 206 219 275 321 292 214 202 264 308 315 321 337 357
228 89 153 215 222 277 260 267 349 290 269 299 191 168 212 239 244 256 270 240 230 252 231 198 242 79 281 255 216 81 352 240 95 250 75 14 78 273 260 270 318 313 263 179 242 274 267 270 267 268 260 244 213 195 242 261 288 213 182 177 182 185 165 151 156 153 149 144 151 153 185 190 183 212 228 240 216 274 268 206 173 229 319 325 332 345 4
119 334 298 255 326 293 262 288 305 292 321 296 317 291 255 237 271 274 238 268 252 280 333 357 18 128 248 49 328 347 341 302 234 342 45 15 213 214 116 300 259 255 284 301 302 301 303 296 294 290 280 258 220 208 210 223 236 237 213 186 172 148 143 140 141 144 147 153 157 171 179 149 189 227 228 221 204 223 234 143 150 175 273 312 333 348 14
249 158 230 187 186 242 339 321 323 314 287 281 300 283 10 336 297 279 263 172 336 2 42 135 242 66 357 15 39 17 276 10 32 249 162 214 43 100 202 270 284 304 302 300 286 276 282 292 297 298 293 282 264 233 222 215 224 223 218 201 156 142 142 140 144 147 153 165 171 162 153 188 231 231 253 120 149 132 100 102 118 153 186 13 3 3 12
119 260 255 244 222 241 243 248 266 244 230 212 230 236 112 311 262 255 215 104 69 72 290 272 68 35 53 239 229 203 317 35 210 50 26 306 93 21 308 303 298 296 299 299 301 300 293 289 290 289 286 284 275 240 173 147 223 256 236 197 145 147 142 145 145 146 147 156 149 156 175 208 294 335 65 75 61 64 73 98 116 100 57 50 31 27 31